Time,TemperatureF,DewpointF,PressureIn,WindDirection,WindDirectionDegrees,WindSpeedMPH,WindSpeedGustMPH,Humidity,HourlyPrecipIn,Conditions,Clouds,dailyrainin,SoftwareType,DateUTC
2013-09-14 00:00:00,55.4,54.8,29.66,SW,234,0.0,1.0,98,0.00,,,1.97,Wunderground v.1.15,2013-09-14 04:00:00,
2013-09-14 00:05:00,55.2,54.6,29.66,SW,234,0.0,1.0,98,0.00,,,0.00,Wunderground v.1.15,2013-09-14 04:05:00,
2013-09-14 00:10:00,55.1,54.5,29.66,SW,236,0.0,1.0,98,0.00,,,0.00,Wunderground v.1.15,2013-09-14 04:10:00,
2013-09-14 00:15:00,55.3,54.7,29.66,WSW,238,0.0,1.0,98,0.00,,,0.01,Wunderground v.1.15,2013-09-14 04:15:00,
2013-09-14 00:20:00,55.3,54.7,29.66,WSW,240,0.0,1.0,98,0.00,,,0.01,Wunderground v.1.15,2013-09-14 04:20:00,
2013-09-14 00:25:00,55.2,54.6,29.66,WSW,240,0.0,1.0,98,0.00,,,0.01,Wunderground v.1.15,2013-09-14 04:25:00,
2013-09-14 00:30:00,55.2,54.6,29.67,WSW,239,0.0,1.0,98,0.00,,,0.01,Wunderground v.1.15,2013-09-14 04:30:00,
2013-09-14 00:35:00,55.1,54.5,29.67,WSW,239,0.0,1.0,98,0.00,,,0.01,Wunderground v.1.15,2013-09-14 04:35:00,
2013-09-14 00:40:00,55.0,54.4,29.67,WSW,239,0.0,1.0,98,0.00,,,0.01,Wunderground v.1.15,2013-09-14 04:40:00,
2013-09-14 00:45:00,55.0,54.4,29.67,NNW,347,0.0,1.0,98,0.00,,,0.01,Wunderground v.1.15,2013-09-14 04:45:00,
2013-09-14 00:50:00,55.0,54.4,29.67,NNW,347,0.0,1.0,98,0.00,,,0.01,Wunderground v.1.15,2013-09-14 04:50:00,
2013-09-14 01:00:00,54.8,54.2,29.67,NNW,347,0.0,1.0,98,0.00,,,0.01,Wunderground v.1.15,2013-09-14 05:00:00,
2013-09-14 01:05:00,54.7,54.1,29.67,NNW,347,0.0,1.0,98,0.00,,,0.01,Wunderground v.1.15,2013-09-14 05:05:00,
2013-09-14 01:10:00,54.6,54.0,29.67,NNW,347,0.0,1.0,98,0.00,,,0.01,Wunderground v.1.15,2013-09-14 05:10:00,
2013-09-14 01:15:00,54.6,54.0,29.67,NNW,347,0.0,1.0,98,0.00,,,0.01,Wunderground v.1.15,2013-09-14 05:15:00,
2013-09-14 01:20:00,54.5,53.9,29.67,NNW,347,0.0,1.0,98,0.00,,,0.01,Wunderground v.1.15,2013-09-14 05:20:00,
2013-09-14 01:25:00,54.4,53.8,29.68,NNW,347,0.0,1.0,98,0.00,,,0.01,Wunderground v.1.15,2013-09-14 05:25:00,
2013-09-14 01:30:00,54.4,53.8,29.68,NNW,347,0.0,1.0,98,0.00,,,0.01,Wunderground v.1.15,2013-09-14 05:30:00,
2013-09-14 01:40:00,54.0,53.4,29.69,NNW,347,0.0,1.0,98,0.00,,,0.01,Wunderground v.1.15,2013-09-14 05:40:00,
2013-09-14 01:45:00,53.9,53.6,29.69,NNW,347,0.0,1.0,99,0.00,,,0.01,Wunderground v.1.15,2013-09-14 05:45:00,
2013-09-14 01:50:00,53.9,53.6,29.69,NNW,347,0.0,1.0,99,0.00,,,0.01,Wunderground v.1.15,2013-09-14 05:50:00,
2013-09-14 01:55:00,53.8,53.5,29.69,NNW,347,0.0,1.0,99,0.00,,,0.01,Wunderground v.1.15,2013-09-14 05:55:00,
2013-09-14 02:00:00,53.8,53.5,29.69,NNW,347,0.0,1.0,99,0.00,,,0.01,Wunderground v.1.15,2013-09-14 06:00:00,
2013-09-14 02:05:00,53.8,53.5,29.69,NNW,347,0.0,1.0,99,0.00,,,0.01,Wunderground v.1.15,2013-09-14 06:05:00,
2013-09-14 02:15:00,53.6,53.3,29.69,NNW,347,0.0,1.0,99,0.00,,,0.01,Wunderground v.1.15,2013-09-14 06:15:00,
2013-09-14 02:20:00,53.7,53.4,29.69,NNW,347,0.0,1.0,99,0.00,,,0.01,Wunderground v.1.15,2013-09-14 06:20:00,
2013-09-14 02:25:00,53.6,53.3,29.69,NNW,347,0.0,1.0,99,0.00,,,0.01,Wunderground v.1.15,2013-09-14 06:25:00,
2013-09-14 02:30:00,53.2,52.7,29.70,NNW,347,0.0,1.0,98,0.00,,,0.01,Wunderground v.1.15,2013-09-14 06:30:00,
2013-09-14 02:35:00,53.2,52.9,29.70,NNW,347,0.0,1.0,99,0.00,,,0.01,Wunderground v.1.15,2013-09-14 06:35:00,
2013-09-14 02:40:00,53.2,52.9,29.70,NNW,347,0.0,1.0,99,0.00,,,0.01,Wunderground v.1.15,2013-09-14 06:40:00,
2013-09-14 02:45:00,53.3,53.0,29.70,NNW,347,0.0,1.0,99,0.00,,,0.01,Wunderground v.1.15,2013-09-14 06:45:00,
2013-09-14 02:55:00,53.2,52.9,29.70,NNW,347,0.0,1.0,99,0.00,,,0.01,Wunderground v.1.15,2013-09-14 06:55:00,
2013-09-14 03:00:00,53.1,52.8,29.70,NNW,347,0.0,0.0,99,0.00,,,0.01,Wunderground v.1.15,2013-09-14 07:00:00,
2013-09-14 03:10:00,53.3,53.0,29.71,NNW,347,0.0,0.0,99,0.00,,,0.01,Wunderground v.1.15,2013-09-14 07:10:00,
2013-09-14 03:15:00,53.0,52.7,29.71,NNW,347,0.0,0.0,99,0.00,,,0.01,Wunderground v.1.15,2013-09-14 07:15:00,
2013-09-14 03:20:00,52.4,51.9,29.71,NNW,347,0.0,0.0,98,0.00,,,0.01,Wunderground v.1.15,2013-09-14 07:20:00,
2013-09-14 03:30:00,52.1,51.8,29.71,NNW,347,0.0,0.0,99,0.00,,,0.01,Wunderground v.1.15,2013-09-14 07:30:00,
2013-09-14 03:35:00,52.5,52.2,29.71,NNW,347,0.0,1.0,99,0.00,,,0.01,Wunderground v.1.15,2013-09-14 07:35:00,
2013-09-14 03:40:00,52.8,52.5,29.71,NNW,347,0.0,1.0,99,0.00,,,0.01,Wunderground v.1.15,2013-09-14 07:40:00,
2013-09-14 03:45:00,53.1,52.8,29.71,NNW,347,0.0,1.0,99,0.00,,,0.01,Wunderground v.1.15,2013-09-14 07:45:00,
2013-09-14 03:50:00,53.0,52.7,29.72,West,264,0.0,1.0,99,0.00,,,0.01,Wunderground v.1.15,2013-09-14 07:50:00,
2013-09-14 03:55:00,53.0,52.7,29.72,West,264,0.0,1.0,99,0.00,,,0.01,Wunderground v.1.15,2013-09-14 07:55:00,
2013-09-14 04:00:00,53.1,52.8,29.72,West,264,0.0,1.0,99,0.00,,,0.01,Wunderground v.1.15,2013-09-14 08:00:00,
2013-09-14 04:05:00,53.2,52.9,29.72,West,264,0.0,1.0,99,0.00,,,0.01,Wunderground v.1.15,2013-09-14 08:05:00,
2013-09-14 04:15:00,53.4,53.1,29.72,West,264,0.0,1.0,99,0.00,,,0.01,Wunderground v.1.15,2013-09-14 08:15:00,
2013-09-14 04:20:00,53.5,53.2,29.72,West,264,0.0,1.0,99,0.00,,,0.01,Wunderground v.1.15,2013-09-14 08:20:00,
2013-09-14 04:25:00,53.3,53.0,29.72,West,264,0.0,1.0,99,0.00,,,0.01,Wunderground v.1.15,2013-09-14 08:25:00,
2013-09-14 04:30:00,53.3,53.0,29.72,West,264,0.0,1.0,99,0.00,,,0.01,Wunderground v.1.15,2013-09-14 08:30:00,
2013-09-14 04:35:00,53.2,52.9,29.72,West,264,0.0,1.0,99,0.00,,,0.01,Wunderground v.1.15,2013-09-14 08:35:00,
2013-09-14 04:40:00,52.9,52.6,29.72,West,264,0.0,1.0,99,0.00,,,0.01,Wunderground v.1.15,2013-09-14 08:40:00,
2013-09-14 04:45:00,52.8,52.5,29.72,West,264,0.0,1.0,99,0.00,,,0.01,Wunderground v.1.15,2013-09-14 08:45:00,
2013-09-14 04:55:00,52.8,52.5,29.72,West,264,0.0,1.0,99,0.00,,,0.01,Wunderground v.1.15,2013-09-14 08:55:00,
2013-09-14 05:00:00,52.8,52.5,29.72,West,264,0.0,1.0,99,0.00,,,0.01,Wunderground v.1.15,2013-09-14 09:00:00,
2013-09-14 05:05:00,52.5,52.2,29.72,West,264,0.0,1.0,99,0.00,,,0.01,Wunderground v.1.15,2013-09-14 09:05:00,
2013-09-14 05:10:00,52.5,52.2,29.73,West,264,0.0,1.0,99,0.00,,,0.01,Wunderground v.1.15,2013-09-14 09:10:00,
2013-09-14 05:15:00,52.5,52.2,29.73,West,264,0.0,1.0,99,0.00,,,0.01,Wunderground v.1.15,2013-09-14 09:15:00,
2013-09-14 05:20:00,52.5,52.2,29.73,West,264,0.0,1.0,99,0.00,,,0.01,Wunderground v.1.15,2013-09-14 09:20:00,
2013-09-14 05:30:00,52.8,52.5,29.73,West,264,0.0,1.0,99,0.00,,,0.01,Wunderground v.1.15,2013-09-14 09:30:00,
2013-09-14 05:35:00,52.8,52.5,29.73,West,264,0.0,1.0,99,0.00,,,0.01,Wunderground v.1.15,2013-09-14 09:35:00,
2013-09-14 05:40:00,52.9,52.6,29.73,West,264,0.0,1.0,99,0.00,,,0.01,Wunderground v.1.15,2013-09-14 09:40:00,
2013-09-14 05:45:00,53.2,52.9,29.73,West,264,0.0,1.0,99,0.00,,,0.01,Wunderground v.1.15,2013-09-14 09:45:00,
2013-09-14 05:50:00,53.3,53.0,29.73,West,264,0.0,1.0,99,0.00,,,0.01,Wunderground v.1.15,2013-09-14 09:50:00,
2013-09-14 05:55:00,53.3,53.0,29.74,West,264,0.0,1.0,99,0.00,,,0.01,Wunderground v.1.15,2013-09-14 09:55:00,
2013-09-14 06:00:00,53.1,52.8,29.74,West,264,0.0,1.0,99,0.00,,,0.01,Wunderground v.1.15,2013-09-14 10:00:00,
2013-09-14 06:10:00,52.9,52.6,29.74,West,264,0.0,1.0,99,0.00,,,0.01,Wunderground v.1.15,2013-09-14 10:10:00,
2013-09-14 06:15:00,52.8,52.5,29.74,West,264,0.0,1.0,99,0.00,,,0.01,Wunderground v.1.15,2013-09-14 10:15:00,
2013-09-14 06:20:00,52.5,52.2,29.75,West,264,0.0,1.0,99,0.00,,,0.01,Wunderground v.1.15,2013-09-14 10:20:00,
2013-09-14 06:25:00,52.2,51.9,29.75,West,264,0.0,1.0,99,0.00,,,0.01,Wunderground v.1.15,2013-09-14 10:25:00,
2013-09-14 06:30:00,52.2,51.9,29.75,West,264,0.0,1.0,99,0.00,,,0.01,Wunderground v.1.15,2013-09-14 10:30:00,
2013-09-14 06:35:00,52.1,51.8,29.75,West,264,0.0,1.0,99,0.00,,,0.01,Wunderground v.1.15,2013-09-14 10:35:00,
2013-09-14 06:40:00,52.1,51.8,29.75,West,264,0.0,1.0,99,0.00,,,0.01,Wunderground v.1.15,2013-09-14 10:40:00,
2013-09-14 06:50:00,52.1,51.8,29.75,West,264,0.0,1.0,99,0.00,,,0.01,Wunderground v.1.15,2013-09-14 10:50:00,
2013-09-14 06:55:00,52.2,51.9,29.76,West,264,0.0,1.0,99,0.00,,,0.01,Wunderground v.1.15,2013-09-14 10:55:00,
2013-09-14 07:00:00,52.4,52.1,29.76,West,264,0.0,1.0,99,0.00,,,0.01,Wunderground v.1.15,2013-09-14 11:00:00,
2013-09-14 07:05:00,52.6,52.3,29.76,West,264,0.0,1.0,99,0.00,,,0.01,Wunderground v.1.15,2013-09-14 11:05:00,
2013-09-14 07:10:00,52.8,52.5,29.76,West,264,0.0,1.0,99,0.00,,,0.01,Wunderground v.1.15,2013-09-14 11:10:00,
2013-09-14 07:15:00,53.2,52.9,29.76,NNE,20,0.0,1.0,99,0.00,,,0.01,Wunderground v.1.15,2013-09-14 11:15:00,
2013-09-14 07:25:00,54.5,54.2,29.76,NNE,20,0.0,1.0,99,0.00,,,0.01,Wunderground v.1.15,2013-09-14 11:25:00,
2013-09-14 07:30:00,55.3,55.0,29.77,NNE,20,0.0,1.0,99,0.00,,,0.01,Wunderground v.1.15,2013-09-14 11:30:00,
2013-09-14 07:35:00,55.8,55.5,29.77,NNE,20,0.0,1.0,99,0.00,,,0.01,Wunderground v.1.15,2013-09-14 11:35:00,
2013-09-14 07:40:00,56.2,55.9,29.77,ENE,65,0.0,1.0,99,0.00,,,0.01,Wunderground v.1.15,2013-09-14 11:40:00,
2013-09-14 07:45:00,55.9,55.6,29.77,ENE,65,0.0,1.0,99,0.00,,,0.01,Wunderground v.1.15,2013-09-14 11:45:00,
2013-09-14 07:50:00,56.0,55.7,29.77,ENE,65,0.0,1.0,99,0.00,,,0.01,Wunderground v.1.15,2013-09-14 11:50:00,
2013-09-14 07:55:00,55.8,55.5,29.78,ENE,65,0.0,1.0,99,0.00,,,0.01,Wunderground v.1.15,2013-09-14 11:55:00,
2013-09-14 08:05:00,56.6,56.3,29.78,ENE,65,0.0,1.0,99,0.00,,,0.01,Wunderground v.1.15,2013-09-14 12:05:00,
2013-09-14 08:10:00,58.0,57.7,29.78,South,176,0.0,1.0,99,0.00,,,0.01,Wunderground v.1.15,2013-09-14 12:10:00,
2013-09-14 08:15:00,58.7,58.4,29.78,South,175,0.0,1.0,99,0.00,,,0.01,Wunderground v.1.15,2013-09-14 12:15:00,
2013-09-14 08:20:00,59.0,57.9,29.78,West,275,0.0,1.0,96,0.00,,,0.01,Wunderground v.1.15,2013-09-14 12:20:00,
2013-09-14 08:25:00,59.3,57.6,29.78,WSW,253,0.0,1.0,94,0.00,,,0.01,Wunderground v.1.15,2013-09-14 12:25:00,
2013-09-14 08:30:00,59.8,57.8,29.78,WSW,254,0.0,1.0,93,0.00,,,0.01,Wunderground v.1.15,2013-09-14 12:30:00,
2013-09-14 08:40:00,60.9,58.3,29.79,SW,218,1.0,1.0,91,0.00,,,0.01,Wunderground v.1.15,2013-09-14 12:40:00,
2013-09-14 08:50:00,62.5,58.9,29.79,WSW,248,0.0,1.0,88,0.00,,,0.01,Wunderground v.1.15,2013-09-14 12:50:00,
2013-09-14 08:55:00,63.1,59.5,29.79,ENE,62,0.0,1.0,88,0.00,,,0.01,Wunderground v.1.15,2013-09-14 12:55:00,
2013-09-14 09:00:00,63.4,58.8,29.79,WSW,240,1.0,4.0,85,0.00,,,0.01,Wunderground v.1.15,2013-09-14 13:00:00,
2013-09-14 09:05:00,63.3,58.4,29.80,West,261,1.0,4.0,84,0.00,,,0.01,Wunderground v.1.15,2013-09-14 13:05:00,
2013-09-14 09:10:00,63.1,58.2,29.80,WSW,248,2.0,4.0,84,0.00,,,0.01,Wunderground v.1.15,2013-09-14 13:10:00,
2013-09-14 09:15:00,62.8,57.6,29.80,North,5,3.0,4.0,83,0.00,,,0.01,Wunderground v.1.15,2013-09-14 13:15:00,
2013-09-14 09:25:00,62.2,57.6,29.80,SW,229,1.0,2.0,85,0.00,,,0.01,Wunderground v.1.15,2013-09-14 13:25:00,
2013-09-14 09:30:00,62.5,57.3,29.80,NW,311,1.0,1.0,83,0.00,,,0.01,Wunderground v.1.15,2013-09-14 13:30:00,
2013-09-14 09:35:00,63.2,57.9,29.80,NNW,338,1.0,1.0,83,0.00,,,0.01,Wunderground v.1.15,2013-09-14 13:35:00,
2013-09-14 09:40:00,63.5,57.9,29.80,NE,46,1.0,1.0,82,0.00,,,0.01,Wunderground v.1.15,2013-09-14 13:40:00,
2013-09-14 09:45:00,64.1,59.2,29.80,West,265,1.0,3.0,84,0.00,,,0.01,Wunderground v.1.15,2013-09-14 13:45:00,
2013-09-14 09:50:00,64.0,58.7,29.80,WSW,240,1.0,3.0,83,0.00,,,0.01,Wunderground v.1.15,2013-09-14 13:50:00,
2013-09-14 09:55:00,63.4,58.5,29.80,SSW,194,2.0,3.0,84,0.00,,,0.01,Wunderground v.1.15,2013-09-14 13:55:00,
2013-09-14 10:05:00,64.6,58.3,29.80,West,275,1.0,2.0,80,0.00,,,0.01,Wunderground v.1.15,2013-09-14 14:05:00,
2013-09-14 10:10:00,64.7,58.7,29.80,NNW,335,2.0,2.0,81,0.00,,,0.01,Wunderground v.1.15,2013-09-14 14:10:00,
2013-09-14 10:15:00,65.1,59.1,29.80,NNW,339,2.0,2.0,81,0.00,,,0.01,Wunderground v.1.15,2013-09-14 14:15:00,
2013-09-14 10:20:00,65.3,59.3,29.80,SSE,155,1.0,1.0,81,0.00,,,0.01,Wunderground v.1.15,2013-09-14 14:20:00,
2013-09-14 10:25:00,65.3,58.6,29.80,South,174,0.0,1.0,79,0.00,,,0.01,Wunderground v.1.15,2013-09-14 14:25:00,
2013-09-14 10:30:00,64.8,58.5,29.80,West,260,1.0,2.0,80,0.00,,,0.01,Wunderground v.1.15,2013-09-14 14:30:00,
2013-09-14 10:35:00,64.2,58.2,29.80,NW,314,2.0,2.0,81,0.00,,,0.01,Wunderground v.1.15,2013-09-14 14:35:00,
2013-09-14 10:45:00,64.9,58.2,29.80,WSW,252,2.0,3.0,79,0.00,,,0.01,Wunderground v.1.15,2013-09-14 14:45:00,
2013-09-14 10:50:00,65.5,59.5,29.80,West,281,1.0,5.0,81,0.00,,,0.01,Wunderground v.1.15,2013-09-14 14:50:00,
2013-09-14 10:55:00,65.5,57.7,29.80,WSW,258,2.0,5.0,76,0.00,,,0.01,Wunderground v.1.15,2013-09-14 14:55:00,
2013-09-14 11:00:00,66.2,59.1,29.80,West,265,3.0,3.0,78,0.00,,,0.01,Wunderground v.1.15,2013-09-14 15:00:00,
2013-09-14 11:05:00,65.9,56.6,29.80,SW,228,2.0,3.0,72,0.00,,,0.01,Wunderground v.1.15,2013-09-14 15:05:00,
2013-09-14 11:10:00,65.5,57.4,29.80,East,91,1.0,3.0,75,0.00,,,0.01,Wunderground v.1.15,2013-09-14 15:10:00,
2013-09-14 11:20:00,65.2,57.4,29.80,West,264,1.0,4.0,76,0.00,,,0.01,Wunderground v.1.15,2013-09-14 15:20:00,
2013-09-14 11:25:00,66.2,58.8,29.80,NNW,330,1.0,4.0,77,0.00,,,0.01,Wunderground v.1.15,2013-09-14 15:25:00,
2013-09-14 11:30:00,66.7,57.0,29.80,SW,234,2.0,2.0,71,0.00,,,0.01,Wunderground v.1.15,2013-09-14 15:30:00,
2013-09-14 11:35:00,66.9,57.2,29.80,WSW,246,2.0,8.0,71,0.00,,,0.01,Wunderground v.1.15,2013-09-14 15:35:00,
2013-09-14 11:40:00,66.4,56.7,29.80,WSW,244,3.0,5.0,71,0.00,,,0.01,Wunderground v.1.15,2013-09-14 15:40:00,
2013-09-14 11:45:00,66.4,57.5,29.80,SW,231,4.0,5.0,73,0.00,,,0.01,Wunderground v.1.15,2013-09-14 15:45:00,
2013-09-14 11:50:00,67.0,58.1,29.81,NNE,33,3.0,4.0,73,0.00,,,0.01,Wunderground v.1.15,2013-09-14 15:50:00,
2013-09-14 12:00:00,67.4,58.1,29.80,NW,320,1.0,1.0,72,0.00,,,0.01,Wunderground v.1.15,2013-09-14 16:00:00,
2013-09-14 12:05:00,67.1,57.0,29.80,WNW,302,1.0,2.0,70,0.00,,,0.01,Wunderground v.1.15,2013-09-14 16:05:00,
2013-09-14 12:10:00,67.0,58.4,29.80,West,264,2.0,5.0,74,0.00,,,0.01,Wunderground v.1.15,2013-09-14 16:10:00,
2013-09-14 12:15:00,66.4,57.9,29.80,WSW,248,2.0,5.0,74,0.00,,,0.01,Wunderground v.1.15,2013-09-14 16:15:00,
2013-09-14 12:20:00,66.2,56.1,29.80,WNW,299,2.0,2.0,70,0.00,,,0.01,Wunderground v.1.15,2013-09-14 16:20:00,
2013-09-14 12:25:00,66.6,57.7,29.80,West,268,2.0,2.0,73,0.00,,,0.01,Wunderground v.1.15,2013-09-14 16:25:00,
2013-09-14 12:30:00,66.7,57.0,29.80,West,278,2.0,2.0,71,0.00,,,0.01,Wunderground v.1.15,2013-09-14 16:30:00,
2013-09-14 12:40:00,66.4,57.9,29.81,NW,304,1.0,1.0,74,0.00,,,0.01,Wunderground v.1.15,2013-09-14 16:40:00,
2013-09-14 12:45:00,66.1,57.6,29.81,East,98,0.0,1.0,74,0.00,,,0.01,Wunderground v.1.15,2013-09-14 16:45:00,
2013-09-14 12:50:00,65.9,57.7,29.81,SW,224,1.0,2.0,75,0.00,,,0.01,Wunderground v.1.15,2013-09-14 16:50:00,
2013-09-14 12:55:00,66.1,57.6,29.80,WNW,292,1.0,4.0,74,0.00,,,0.01,Wunderground v.1.15,2013-09-14 16:55:00,
2013-09-14 13:00:00,67.1,59.3,29.81,West,259,2.0,5.0,76,0.00,,,0.01,Wunderground v.1.15,2013-09-14 17:00:00,
2013-09-14 13:05:00,67.1,57.4,29.81,NNE,25,3.0,5.0,71,0.00,,,0.01,Wunderground v.1.15,2013-09-14 17:05:00,
2013-09-14 13:15:00,66.7,57.0,29.81,West,265,1.0,3.0,71,0.00,,,0.01,Wunderground v.1.15,2013-09-14 17:15:00,
2013-09-14 13:20:00,67.3,58.0,29.81,West,262,2.0,2.0,72,0.00,,,0.01,Wunderground v.1.15,2013-09-14 17:20:00,
2013-09-14 13:25:00,68.6,58.8,29.81,SW,235,2.0,4.0,71,0.00,,,0.01,Wunderground v.1.15,2013-09-14 17:25:00,
2013-09-14 13:30:00,68.0,57.8,29.80,SW,233,2.0,4.0,70,0.00,,,0.01,Wunderground v.1.15,2013-09-14 17:30:00,
2013-09-14 13:35:00,68.0,57.8,29.81,WNW,300,2.0,4.0,70,0.00,,,0.01,Wunderground v.1.15,2013-09-14 17:35:00,
2013-09-14 13:40:00,68.0,57.4,29.81,NNE,13,1.0,1.0,69,0.00,,,0.01,Wunderground v.1.15,2013-09-14 17:40:00,
2013-09-14 13:45:00,67.6,57.9,29.80,NNW,329,1.0,1.0,71,0.00,,,0.01,Wunderground v.1.15,2013-09-14 17:45:00,
2013-09-14 13:55:00,69.2,60.6,29.80,SW,219,1.0,2.0,74,0.00,,,0.01,Wunderground v.1.15,2013-09-14 17:55:00,
2013-09-14 14:00:00,70.2,57.9,29.80,SW,235,1.0,4.0,65,0.00,,,0.01,Wunderground v.1.15,2013-09-14 18:00:00,
2013-09-14 14:05:00,70.6,58.3,29.81,East,98,2.0,4.0,65,0.00,,,0.01,Wunderground v.1.15,2013-09-14 18:05:00,
2013-09-14 14:10:00,70.1,56.5,29.81,WSW,242,2.0,4.0,62,0.00,,,0.01,Wunderground v.1.15,2013-09-14 18:10:00,
2013-09-14 14:15:00,68.6,57.2,29.81,SSW,208,1.0,4.0,67,0.00,,,0.01,Wunderground v.1.15,2013-09-14 18:15:00,
2013-09-14 14:20:00,69.3,57.0,29.81,NNW,335,1.0,2.0,65,0.00,,,0.01,Wunderground v.1.15,2013-09-14 18:20:00,
2013-09-14 14:30:00,68.9,56.6,29.81,SW,224,1.0,2.0,65,0.00,,,0.01,Wunderground v.1.15,2013-09-14 18:30:00,
2013-09-14 14:40:00,69.0,56.7,29.81,WNW,287,2.0,2.0,65,0.00,,,0.01,Wunderground v.1.15,2013-09-14 18:40:00,
2013-09-14 14:45:00,69.6,56.4,29.81,ESE,114,2.0,2.0,63,0.00,,,0.01,Wunderground v.1.15,2013-09-14 18:45:00,
2013-09-14 14:55:00,71.1,57.0,29.81,SE,130,1.0,2.0,61,0.00,,,0.01,Wunderground v.1.15,2013-09-14 18:55:00,
2013-09-14 15:00:00,70.6,56.0,29.81,East,85,2.0,2.0,60,0.00,,,0.01,Wunderground v.1.15,2013-09-14 19:00:00,
2013-09-14 15:05:00,70.1,56.5,29.82,SSE,158,2.0,2.0,62,0.00,,,0.01,Wunderground v.1.15,2013-09-14 19:05:00,
2013-09-14 15:10:00,70.3,55.3,29.82,ENE,77,2.0,3.0,59,0.00,,,0.01,Wunderground v.1.15,2013-09-14 19:10:00,
2013-09-14 15:15:00,70.2,54.7,29.82,SW,214,2.0,5.0,58,0.00,,,0.01,Wunderground v.1.15,2013-09-14 19:15:00,
2013-09-14 15:20:00,69.5,52.6,29.82,SW,227,2.0,2.0,55,0.00,,,0.01,Wunderground v.1.15,2013-09-14 19:20:00,
2013-09-14 15:25:00,68.8,54.8,29.82,West,259,2.0,3.0,61,0.00,,,0.01,Wunderground v.1.15,2013-09-14 19:25:00,
2013-09-14 15:35:00,68.7,54.7,29.82,WSW,251,2.0,6.0,61,0.00,,,0.01,Wunderground v.1.15,2013-09-14 19:35:00,
2013-09-14 15:40:00,68.8,55.2,29.82,SW,214,2.0,2.0,62,0.00,,,0.01,Wunderground v.1.15,2013-09-14 19:40:00,
2013-09-14 15:45:00,68.7,54.7,29.83,West,262,2.0,6.0,61,0.00,,,0.01,Wunderground v.1.15,2013-09-14 19:45:00,
2013-09-14 15:50:00,69.2,55.2,29.83,NW,324,2.0,2.0,61,0.00,,,0.01,Wunderground v.1.15,2013-09-14 19:50:00,
2013-09-14 15:55:00,69.4,55.8,29.83,West,269,1.0,5.0,62,0.00,,,0.01,Wunderground v.1.15,2013-09-14 19:55:00,
2013-09-14 16:00:00,68.3,55.2,29.83,West,274,1.0,1.0,63,0.00,,,0.01,Wunderground v.1.15,2013-09-14 20:00:00,
2013-09-14 16:05:00,67.6,54.6,29.83,NNE,30,1.0,2.0,63,0.00,,,0.01,Wunderground v.1.15,2013-09-14 20:05:00,
2013-09-14 16:15:00,66.6,55.7,29.83,WSW,243,1.0,6.0,68,0.00,,,0.01,Wunderground v.1.15,2013-09-14 20:15:00,
2013-09-14 16:20:00,66.6,57.7,29.84,West,268,1.0,1.0,73,0.00,,,0.01,Wunderground v.1.15,2013-09-14 20:20:00,
2013-09-14 16:25:00,67.5,56.6,29.83,ESE,118,1.0,6.0,68,0.00,,,0.01,Wunderground v.1.15,2013-09-14 20:25:00,
2013-09-14 16:30:00,68.3,55.2,29.84,NE,49,1.0,6.0,63,0.00,,,0.01,Wunderground v.1.15,2013-09-14 20:30:00,
2013-09-14 16:35:00,68.4,55.7,29.84,NE,54,2.0,6.0,64,0.00,,,0.01,Wunderground v.1.15,2013-09-14 20:35:00,
2013-09-14 16:40:00,68.3,55.2,29.84,East,90,2.0,2.0,63,0.00,,,0.01,Wunderground v.1.15,2013-09-14 20:40:00,
2013-09-14 16:50:00,68.2,56.0,29.84,West,266,1.0,6.0,65,0.00,,,0.01,Wunderground v.1.15,2013-09-14 20:50:00,
2013-09-14 17:00:00,67.9,54.4,29.85,North,349,1.0,6.0,62,0.00,,,0.01,Wunderground v.1.15,2013-09-14 21:00:00,
2013-09-14 17:05:00,67.7,55.5,29.85,SE,143,1.0,6.0,65,0.00,,,0.01,Wunderground v.1.15,2013-09-14 21:05:00,
2013-09-14 17:10:00,67.7,55.1,29.85,South,185,1.0,1.0,64,0.00,,,0.01,Wunderground v.1.15,2013-09-14 21:10:00,
2013-09-14 17:15:00,67.1,54.5,29.85,ESE,108,2.0,2.0,64,0.00,,,0.01,Wunderground v.1.15,2013-09-14 21:15:00,
2013-09-14 17:20:00,66.6,54.9,29.85,WNW,282,2.0,2.0,66,0.00,,,0.01,Wunderground v.1.15,2013-09-14 21:20:00,
2013-09-14 17:25:00,66.2,53.7,29.85,NNE,20,2.0,2.0,64,0.00,,,0.01,Wunderground v.1.15,2013-09-14 21:25:00,
2013-09-14 17:35:00,66.0,53.9,29.86,SSE,159,1.0,4.0,65,0.00,,,0.01,Wunderground v.1.15,2013-09-14 21:35:00,
2013-09-14 17:40:00,66.1,54.4,29.86,SW,228,1.0,1.0,66,0.00,,,0.01,Wunderground v.1.15,2013-09-14 21:40:00,
2013-09-14 17:45:00,65.9,53.8,29.86,ESE,105,1.0,1.0,65,0.00,,,0.01,Wunderground v.1.15,2013-09-14 21:45:00,
2013-09-14 17:50:00,65.7,53.6,29.86,North,11,1.0,1.0,65,0.00,,,0.01,Wunderground v.1.15,2013-09-14 21:50:00,
2013-09-14 18:00:00,64.8,53.2,29.87,South,174,1.0,2.0,66,0.00,,,0.01,Wunderground v.1.15,2013-09-14 22:00:00,
2013-09-14 18:05:00,64.5,53.3,29.87,NW,315,1.0,6.0,67,0.00,,,0.01,Wunderground v.1.15,2013-09-14 22:05:00,
2013-09-14 18:10:00,64.6,53.0,29.86,NNW,345,1.0,1.0,66,0.00,,,0.01,Wunderground v.1.15,2013-09-14 22:10:00,
2013-09-14 18:15:00,64.0,52.8,29.87,NW,321,1.0,6.0,67,0.00,,,0.01,Wunderground v.1.15,2013-09-14 22:15:00,
2013-09-14 18:20:00,63.5,52.7,29.87,South,187,1.0,1.0,68,0.00,,,0.01,Wunderground v.1.15,2013-09-14 22:20:00,
2013-09-14 18:25:00,62.7,52.0,29.87,West,280,1.0,6.0,68,0.00,,,0.01,Wunderground v.1.15,2013-09-14 22:25:00,
2013-09-14 18:35:00,61.4,52.3,29.88,NE,46,0.0,6.0,72,0.00,,,0.01,Wunderground v.1.15,2013-09-14 22:35:00,
2013-09-14 18:40:00,60.7,52.0,29.88,SSW,193,0.0,6.0,73,0.00,,,0.01,Wunderground v.1.15,2013-09-14 22:40:00,
2013-09-14 18:45:00,60.1,52.1,29.89,WSW,250,0.0,6.0,75,0.00,,,0.01,Wunderground v.1.15,2013-09-14 22:45:00,
2013-09-14 18:50:00,59.4,52.2,29.89,WSW,250,0.0,6.0,77,0.00,,,0.01,Wunderground v.1.15,2013-09-14 22:50:00,
2013-09-14 18:55:00,58.7,52.2,29.89,WSW,250,0.0,6.0,79,0.00,,,0.01,Wunderground v.1.15,2013-09-14 22:55:00,
2013-09-14 19:00:00,58.0,52.2,29.89,WSW,250,0.0,6.0,81,0.00,,,0.01,Wunderground v.1.15,2013-09-14 23:00:00,
2013-09-14 19:05:00,57.4,52.3,29.90,WSW,250,0.0,6.0,83,0.00,,,0.01,Wunderground v.1.15,2013-09-14 23:05:00,
2013-09-14 19:10:00,56.7,52.2,29.90,WSW,250,0.0,6.0,85,0.00,,,0.01,Wunderground v.1.15,2013-09-14 23:10:00,
2013-09-14 19:20:00,55.4,51.9,29.91,WSW,250,0.0,6.0,88,0.00,,,0.01,Wunderground v.1.15,2013-09-14 23:20:00,
2013-09-14 19:25:00,54.9,51.7,29.91,WSW,250,0.0,6.0,89,0.00,,,0.01,Wunderground v.1.15,2013-09-14 23:25:00,
2013-09-14 19:30:00,54.7,52.1,29.91,WSW,250,0.0,6.0,91,0.00,,,0.01,Wunderground v.1.15,2013-09-14 23:30:00,
2013-09-14 19:35:00,54.5,51.9,29.92,WSW,250,0.0,6.0,91,0.00,,,0.01,Wunderground v.1.15,2013-09-14 23:35:00,
2013-09-14 19:40:00,54.4,51.8,29.92,WSW,250,0.0,6.0,91,0.00,,,0.01,Wunderground v.1.15,2013-09-14 23:40:00,
2013-09-14 19:45:00,54.3,51.7,29.92,WSW,250,0.0,6.0,91,0.00,,,0.01,Wunderground v.1.15,2013-09-14 23:45:00,
2013-09-14 19:50:00,54.3,52.0,29.92,WSW,250,0.0,6.0,92,0.00,,,0.01,Wunderground v.1.15,2013-09-14 23:50:00,
2013-09-14 20:00:00,54.5,51.9,29.93,WNW,294,0.0,6.0,91,0.00,,,0.01,Wunderground v.1.15,2013-09-15 00:00:00,
2013-09-14 20:05:00,54.6,51.7,29.93,WNW,302,0.0,6.0,90,0.00,,,0.01,Wunderground v.1.15,2013-09-15 00:05:00,
2013-09-14 20:10:00,54.6,51.7,29.93,NE,34,0.0,6.0,90,0.00,,,0.01,Wunderground v.1.15,2013-09-15 00:10:00,
2013-09-14 20:15:00,54.7,51.5,29.93,ENE,71,0.0,6.0,89,0.00,,,0.01,Wunderground v.1.15,2013-09-15 00:15:00,
2013-09-14 20:20:00,54.7,51.5,29.93,ENE,72,0.0,6.0,89,0.00,,,0.01,Wunderground v.1.15,2013-09-15 00:20:00,
2013-09-14 20:25:00,54.5,51.6,29.94,ENE,72,0.0,6.0,90,0.00,,,0.01,Wunderground v.1.15,2013-09-15 00:25:00,
2013-09-14 20:35:00,54.0,51.1,29.94,ENE,72,0.0,6.0,90,0.00,,,0.01,Wunderground v.1.15,2013-09-15 00:35:00,
2013-09-14 20:40:00,53.7,51.1,29.94,ENE,72,0.0,6.0,91,0.00,,,0.01,Wunderground v.1.15,2013-09-15 00:40:00,
2013-09-14 20:45:00,53.5,50.9,29.94,ENE,72,0.0,6.0,91,0.00,,,0.01,Wunderground v.1.15,2013-09-15 00:45:00,
2013-09-14 20:50:00,53.5,50.9,29.95,NE,45,0.0,6.0,91,0.00,,,0.01,Wunderground v.1.15,2013-09-15 00:50:00,
2013-09-14 20:55:00,53.2,50.6,29.95,NE,45,0.0,6.0,91,0.00,,,0.01,Wunderground v.1.15,2013-09-15 00:55:00,
2013-09-14 21:00:00,53.0,50.7,29.95,NE,45,0.0,6.0,92,0.00,,,0.01,Wunderground v.1.15,2013-09-15 01:00:00,
2013-09-14 21:05:00,52.7,50.4,29.95,NE,45,0.0,6.0,92,0.00,,,0.01,Wunderground v.1.15,2013-09-15 01:05:00,
2013-09-14 21:15:00,52.2,50.5,29.95,NE,45,0.0,6.0,94,0.00,,,0.01,Wunderground v.1.15,2013-09-15 01:15:00,
2013-09-14 21:20:00,52.1,50.4,29.96,NE,45,0.0,6.0,94,0.00,,,0.01,Wunderground v.1.15,2013-09-15 01:20:00,
2013-09-14 21:25:00,52.1,50.4,29.96,NE,45,0.0,6.0,94,0.00,,,0.01,Wunderground v.1.15,2013-09-15 01:25:00,
2013-09-14 21:30:00,52.0,50.3,29.95,NE,45,0.0,6.0,94,0.00,,,0.01,Wunderground v.1.15,2013-09-15 01:30:00,
2013-09-14 21:35:00,51.9,50.2,29.96,NE,45,0.0,6.0,94,0.00,,,0.01,Wunderground v.1.15,2013-09-15 01:35:00,
2013-09-14 21:40:00,51.8,50.1,29.96,NE,45,0.0,6.0,94,0.00,,,0.01,Wunderground v.1.15,2013-09-15 01:40:00,
2013-09-14 21:45:00,51.8,50.1,29.96,NE,45,0.0,6.0,94,0.00,,,0.01,Wunderground v.1.15,2013-09-15 01:45:00,
2013-09-14 21:55:00,51.7,50.0,29.96,NE,45,0.0,6.0,94,0.00,,,0.01,Wunderground v.1.15,2013-09-15 01:55:00,
2013-09-14 22:00:00,51.4,49.7,29.96,NE,45,0.0,6.0,94,0.00,,,0.01,Wunderground v.1.15,2013-09-15 02:00:00,
2013-09-14 22:05:00,51.1,49.4,29.96,NE,45,0.0,6.0,94,0.00,,,0.01,Wunderground v.1.15,2013-09-15 02:05:00,
2013-09-14 22:10:00,51.0,49.6,29.96,NE,45,0.0,6.0,95,0.00,,,0.01,Wunderground v.1.15,2013-09-15 02:10:00,
2013-09-14 22:15:00,51.0,49.6,29.96,NE,45,0.0,6.0,95,0.00,,,0.01,Wunderground v.1.15,2013-09-15 02:15:00,
2013-09-14 22:20:00,50.8,49.4,29.96,NE,45,0.0,6.0,95,0.00,,,0.01,Wunderground v.1.15,2013-09-15 02:20:00,
2013-09-14 22:30:00,50.6,49.2,29.96,WSW,255,0.0,6.0,95,0.00,,,0.01,Wunderground v.1.15,2013-09-15 02:30:00,
2013-09-14 22:35:00,50.4,49.0,29.96,WSW,255,0.0,6.0,95,0.00,,,0.01,Wunderground v.1.15,2013-09-15 02:35:00,
2013-09-14 22:40:00,50.1,48.7,29.96,WSW,255,0.0,6.0,95,0.00,,,0.01,Wunderground v.1.15,2013-09-15 02:40:00,
2013-09-14 22:45:00,49.9,48.5,29.96,WSW,255,0.0,6.0,95,0.00,,,0.01,Wunderground v.1.15,2013-09-15 02:45:00,
2013-09-14 22:50:00,49.6,48.2,29.96,WSW,255,0.0,6.0,95,0.00,,,0.01,Wunderground v.1.15,2013-09-15 02:50:00,
2013-09-14 22:55:00,49.6,48.5,29.96,WSW,255,0.0,6.0,96,0.00,,,0.01,Wunderground v.1.15,2013-09-15 02:55:00,
2013-09-14 23:00:00,49.6,48.5,29.96,WSW,255,0.0,6.0,96,0.00,,,0.01,Wunderground v.1.15,2013-09-15 03:00:00,
2013-09-14 23:10:00,49.7,48.6,29.97,WSW,255,0.0,6.0,96,0.00,,,0.01,Wunderground v.1.15,2013-09-15 03:10:00,
2013-09-14 23:15:00,49.4,48.3,29.97,WSW,255,0.0,6.0,96,0.00,,,0.01,Wunderground v.1.15,2013-09-15 03:15:00,
2013-09-14 23:20:00,49.2,48.1,29.97,WSW,255,0.0,6.0,96,0.00,,,0.01,Wunderground v.1.15,2013-09-15 03:20:00,
2013-09-14 23:25:00,49.1,48.0,29.97,WSW,255,0.0,6.0,96,0.00,,,0.01,Wunderground v.1.15,2013-09-15 03:25:00,
2013-09-14 23:30:00,49.1,48.3,29.97,WSW,255,0.0,6.0,97,0.00,,,0.01,Wunderground v.1.15,2013-09-15 03:30:00,
2013-09-14 23:35:00,48.9,47.8,29.97,WSW,255,0.0,6.0,96,0.00,,,0.01,Wunderground v.1.15,2013-09-15 03:35:00,
2013-09-14 23:40:00,48.6,47.5,29.97,WSW,255,0.0,6.0,96,0.00,,,0.01,Wunderground v.1.15,2013-09-15 03:40:00,
2013-09-14 23:45:00,48.5,47.7,29.97,WSW,255,0.0,6.0,97,0.00,,,0.01,Wunderground v.1.15,2013-09-15 03:45:00,
2013-09-14 23:55:00,48.5,47.7,29.97,WSW,255,0.0,6.0,97,0.00,,,0.01,Wunderground v.1.15,2013-09-15 03:55:00,